Hourly Weather Kachan

Today, 9 March, Tuesday

Time Temperature Precipitation Wind Pressure Humidity
00:00 -13°C° 0 mm 2 mps 758 mmHg 92%
01:00 -14°C° 0 mm 2 mps 759 mmHg 92%
02:00 -12°C° 0 mm 1 mps 759 mmHg 93%
03:00 -12°C° 0 mm 1 mps 759 mmHg 93%
04:00 -12°C° 0 mm 1 mps 759 mmHg 94%
05:00 -13°C° 0 mm 1 mps 759 mmHg 94%
06:00 -12°C° 0 mm 1 mps 760 mmHg 92%
07:00 -12°C° 0 mm 1 mps 760 mmHg 91%
08:00 -11°C° 0 mm 0 mps 760 mmHg 89%
09:00 -10°C° 0 mm 0 mps 760 mmHg 84%
10:00 -8°C° 0 mm 0 mps 760 mmHg 78%
11:00 -7°C° 0 mm 0 mps 760 mmHg 73%
12:00 -6°C° 0 mm 1 mps 760 mmHg 75%
13:00 -6°C° 0 mm 1 mps 760 mmHg 76%
14:00 -4°C° 0 mm 1 mps 760 mmHg 78%
15:00 -7°C° 0.3 mm 2 mps 760 mmHg 83%
16:00 -7°C° 0.3 mm 2 mps 760 mmHg 88%
17:00 -8°C° 0.3 mm 3 mps 760 mmHg 93%
18:00 -8°C° 0.8 mm 3 mps 760 mmHg 93%
19:00 -8°C° 0.8 mm 3 mps 760 mmHg 94%
20:00 -8°C° 0.8 mm 3 mps 760 mmHg 94%
21:00 -10°C° 0.9 mm 4 mps 760 mmHg 94%
22:00 -11°C° 0.9 mm 4 mps 760 mmHg 93%
23:00 -12°C° 0.9 mm 5 mps 760 mmHg 93%

Tomorrow, 10 March, Wednesday

Time Temperature Precipitation Wind Pressure Humidity
00:00 -13°C° 0.5 mm 5 mps 760 mmHg 93%
01:00 -14°C° 0.5 mm 5 mps 760 mmHg 92%
02:00 -14°C° 0.5 mm 5 mps 760 mmHg 92%
03:00 -15°C° 0.3 mm 5 mps 761 mmHg 91%
04:00 -15°C° 0.3 mm 5 mps 761 mmHg 90%
05:00 -17°C° 0.3 mm 5 mps 761 mmHg 90%
06:00 -17°C° 0 mm 5 mps 762 mmHg 88%
07:00 -17°C° 0 mm 5 mps 762 mmHg 87%
08:00 -18°C° 0 mm 5 mps 763 mmHg 85%
09:00 -17°C° 0 mm 5 mps 763 mmHg 81%
10:00 -15°C° 0 mm 5 mps 763 mmHg 77%
11:00 -14°C° 0 mm 5 mps 764 mmHg 72%
12:00 -14°C° 0 mm 5 mps 764 mmHg 70%
13:00 -13°C° 0 mm 5 mps 764 mmHg 67%
14:00 -12°C° 0 mm 5 mps 764 mmHg 65%
15:00 -12°C° 0 mm 4 mps 764 mmHg 67%
16:00 -12°C° 0 mm 4 mps 764 mmHg 69%
17:00 -12°C° 0 mm 4 mps 764 mmHg 71%
18:00 -14°C° 0 mm 4 mps 765 mmHg 73%
19:00 -15°C° 0 mm 4 mps 765 mmHg 75%
20:00 -16°C° 0 mm 4 mps 765 mmHg 77%
21:00 -16°C° 0 mm 4 mps 765 mmHg 78%
22:00 -16°C° 0 mm 4 mps 766 mmHg 79%
23:00 -17°C° 0 mm 4 mps 766 mmHg 81%

Day after tomorrow, 11 March, Thursday

Time Temperature Precipitation Wind Pressure Humidity
00:00 -17°C° 0 mm 4 mps 766 mmHg 82%
01:00 -17°C° 0 mm 4 mps 765 mmHg 83%
02:00 -17°C° 0 mm 4 mps 765 mmHg 84%
03:00 -17°C° 0.1 mm 4 mps 765 mmHg 86%
04:00 -17°C° 0.1 mm 4 mps 765 mmHg 89%
05:00 -16°C° 0.1 mm 3 mps 765 mmHg 91%
06:00 -16°C° 0 mm 3 mps 765 mmHg 91%
07:00 -17°C° 0 mm 4 mps 765 mmHg 91%
08:00 -16°C° 0 mm 4 mps 764 mmHg 91%
09:00 -15°C° 0 mm 4 mps 764 mmHg 89%
10:00 -14°C° 0 mm 4 mps 764 mmHg 87%
11:00 -11°C° 0 mm 4 mps 764 mmHg 85%
12:00 -10°C° 0 mm 4 mps 763 mmHg 84%
13:00 -8°C° 0 mm 4 mps 763 mmHg 82%
14:00 -7°C° 0 mm 4 mps 762 mmHg 80%
15:00 -7°C° 0 mm 4 mps 762 mmHg 81%
16:00 -7°C° 0 mm 4 mps 761 mmHg 81%
17:00 -7°C° 0 mm 4 mps 760 mmHg 81%
18:00 -8°C° 0 mm 4 mps 760 mmHg 83%
19:00 -10°C° 0 mm 5 mps 760 mmHg 84%
20:00 -11°C° 0 mm 5 mps 759 mmHg 86%
21:00 -11°C° 0 mm 5 mps 759 mmHg 87%
22:00 -11°C° 0 mm 5 mps 758 mmHg 88%
23:00 -11°C° 0 mm 5 mps 758 mmHg 89%

12 March, Friday

Time Temperature Precipitation Wind Pressure Humidity
00:00 -11°C° 0 mm 5 mps 757 mmHg 89%
01:00 -11°C° 0 mm 5 mps 756 mmHg 88%
02:00 -11°C° 0 mm 6 mps 756 mmHg 88%
03:00 -11°C° 0 mm 6 mps 755 mmHg 87%
04:00 -11°C° 0 mm 6 mps 754 mmHg 87%
05:00 -11°C° 0 mm 6 mps 754 mmHg 86%
06:00 -10°C° 0 mm 6 mps 753 mmHg 85%
07:00 -10°C° 0 mm 6 mps 752 mmHg 84%
08:00 -11°C° 0 mm 7 mps 752 mmHg 83%
09:00 -11°C° 0.2 mm 7 mps 751 mmHg 85%
10:00 -9°C° 0.2 mm 7 mps 751 mmHg 87%
11:00 -9°C° 0.2 mm 7 mps 750 mmHg 90%
12:00 -8°C° 0.3 mm 7 mps 750 mmHg 90%
13:00 -8°C° 0.3 mm 6 mps 750 mmHg 90%
14:00 -8°C° 0.3 mm 6 mps 749 mmHg 89%
15:00 -6°C° 0.3 mm 6 mps 749 mmHg 91%
16:00 -6°C° 0.3 mm 5 mps 749 mmHg 92%
17:00 -5°C° 0.3 mm 5 mps 748 mmHg 93%
18:00 -5°C° 0.2 mm 5 mps 748 mmHg 93%
19:00 -4°C° 0.2 mm 4 mps 748 mmHg 94%
20:00 -4°C° 0.2 mm 4 mps 748 mmHg 94%
21:00 -4°C° 0.1 mm 4 mps 748 mmHg 94%
22:00 -4°C° 0.1 mm 4 mps 748 mmHg 94%
23:00 -4°C° 0.1 mm 4 mps 748 mmHg 95%

13 March, Saturday

Time Temperature Precipitation Wind Pressure Humidity
00:00 -2°C° 0.1 mm 3 mps 748 mmHg 95%
01:00 -2°C° 0.1 mm 3 mps 748 mmHg 95%
02:00 -1°C° 0.1 mm 3 mps 748 mmHg 96%
03:00 -1°C° 0 mm 3 mps 748 mmHg 95%
04:00 -1°C° 0 mm 3 mps 748 mmHg 95%
05:00 0°C° 0 mm 3 mps 748 mmHg 95%
06:00 0°C° 0 mm 3 mps 749 mmHg 95%
07:00 0°C° 0 mm 3 mps 749 mmHg 94%
08:00 -1°C° 0 mm 4 mps 749 mmHg 94%
09:00 -1°C° 0 mm 4 mps 749 mmHg 93%
10:00 -1°C° 0 mm 4 mps 749 mmHg 93%
11:00 0°C° 0 mm 4 mps 749 mmHg 93%
12:00 0°C° 0 mm 4 mps 749 mmHg 92%
13:00 0°C° 0 mm 4 mps 749 mmHg 92%
14:00 0°C° 0 mm 5 mps 748 mmHg 92%
15:00 0°C° 0 mm 5 mps 748 mmHg 91%
16:00 0°C° 0 mm 5 mps 748 mmHg 91%
17:00 0°C° 0 mm 5 mps 748 mmHg 91%
18:00 0°C° 0.1 mm 5 mps 747 mmHg 92%
19:00 0°C° 0.1 mm 5 mps 747 mmHg 94%
20:00 0°C° 0.1 mm 5 mps 747 mmHg 95%
21:00 0°C° 0.1 mm 4 mps 747 mmHg 95%
22:00 -1°C° 0.1 mm 4 mps 747 mmHg 95%
23:00 -1°C° 0.1 mm 4 mps 747 mmHg 95%

14 March, Sunday

Time Temperature Precipitation Wind Pressure Humidity
00:00 -1°C° 0 mm 4 mps 747 mmHg 94%
01:00 -1°C° 0 mm 4 mps 747 mmHg 92%
02:00 -1°C° 0 mm 4 mps 747 mmHg 90%
03:00 -1°C° 0 mm 4 mps 747 mmHg 92%
04:00 -1°C° 0 mm 4 mps 747 mmHg 93%
05:00 -2°C° 0 mm 4 mps 747 mmHg 94%
06:00 -2°C° 0.2 mm 4 mps 746 mmHg 95%
07:00 -1°C° 0.2 mm 5 mps 746 mmHg 96%
08:00 -1°C° 0.2 mm 5 mps 746 mmHg 96%
09:00 -1°C° 0.1 mm 5 mps 746 mmHg 96%
10:00 0°C° 0.1 mm 5 mps 746 mmHg 96%
11:00 +1°C° 0.1 mm 5 mps 745 mmHg 96%
12:00 +1°C° 0.1 mm 5 mps 745 mmHg 96%
13:00 +1°C° 0.1 mm 5 mps 745 mmHg 96%
14:00 +1°C° 0.1 mm 4 mps 745 mmHg 95%
15:00 +1°C° 0 mm 5 mps 745 mmHg 95%
16:00 +1°C° 0 mm 5 mps 745 mmHg 95%
17:00 +1°C° 0 mm 5 mps 744 mmHg 94%
18:00 +2°C° 0.1 mm 5 mps 744 mmHg 94%
19:00 +2°C° 0.1 mm 5 mps 744 mmHg 94%
20:00 +2°C° 0.1 mm 5 mps 743 mmHg 94%
21:00 +2°C° 0.1 mm 5 mps 744 mmHg 93%
22:00 +2°C° 0.1 mm 5 mps 744 mmHg 93%
23:00 +2°C° 0.1 mm 5 mps 744 mmHg 92%
Show more

We Need Your Consent

Meteoprog and our Service Providers may store and access personal data such as cookies, device identifiers or other similar technologies on your device and process such data to personalise content and ads, as well as provide social media features and to analyse the traffic.

  • Store and/or access information on your device

    Cookies, device identifiers or other information can be stored or accessed on your device for the purposes indicated above.

  • Personalised ads and content, ad and content measurement, audience insights, and products development

    Ads and content can be personalised based on a profile. More data can be added to better personalise ads and content. Ad and content performance can be measured. Insights about the audience who saw the ads and content can be derived. Such data can be used to develop or improve user’s experience, systems and software.

By clicking ‘I Agree’ you will allow the use of indicated cookies, device identifiers, web beacons or other similar technologies. Your settings can be changed in the browser on your device.

For certain purposes, legitimate interests may be relied on, rather than consent. You can read more about this in our Privacy and Cookie Policy.